When you browse on this site, cookies collect data to enhance your experience and personalize the content and advertising you see.
Visit our Privacy Policy to learn more. By continuing to use the site, you agree to this use of cookies and data.
  • In United Kingdom
  • List of Countries
  • For 7 days
  • Water Temperature
  • Weather Map
  • Weather Widgets
  • user-avatar
    Login

    Hourly Weather Haskovo

    Today, 23 February, Sunday

    Time Temperature Precipitation Wind Pressure Humidity
    00:00 +4°C° 0 mm 1 mps 750 mmHg 84%
    01:00 +4°C° 0 mm 1 mps 750 mmHg 84%
    02:00 +2°C° 0 mm 2 mps 750 mmHg 85%
    03:00 +3°C° 0 mm 1 mps 750 mmHg 85%
    04:00 +3°C° 0 mm 1 mps 749 mmHg 85%
    05:00 +3°C° 0 mm 1 mps 749 mmHg 85%
    06:00 +3°C° 0 mm 1 mps 748 mmHg 84%
    07:00 +3°C° 0 mm 1 mps 748 mmHg 82%
    08:00 +4°C° 0 mm 1 mps 748 mmHg 80%
    09:00 +5°C° 0 mm 1 mps 748 mmHg 72%
    10:00 +7°C° 0 mm 1 mps 748 mmHg 64%
    11:00 +7°C° 0 mm 2 mps 748 mmHg 56%
    12:00 +8°C° 0 mm 2 mps 747 mmHg 52%
    13:00 +10°C° 0 mm 2 mps 747 mmHg 48%
    14:00 +12°C° 0 mm 2 mps 746 mmHg 44%
    15:00 +12°C° 0 mm 2 mps 746 mmHg 47%
    16:00 +12°C° 0 mm 1 mps 745 mmHg 50%
    17:00 +12°C° 0 mm 1 mps 744 mmHg 54%
    18:00 +10°C° 0 mm 1 mps 744 mmHg 57%
    19:00 +8°C° 0 mm 2 mps 744 mmHg 60%
    20:00 +7°C° 0 mm 2 mps 744 mmHg 64%
    21:00 +7°C° 0 mm 2 mps 744 mmHg 65%
    22:00 +7°C° 0 mm 2 mps 744 mmHg 66%
    23:00 +6°C° 0 mm 2 mps 743 mmHg 67%

    Tomorrow, 24 February, Monday

    Time Temperature Precipitation Wind Pressure Humidity
    00:00 +6°C° 0 mm 2 mps 743 mmHg 67%
    01:00 +6°C° 0 mm 2 mps 742 mmHg 67%
    02:00 +6°C° 0 mm 2 mps 742 mmHg 67%
    03:00 +6°C° 0 mm 2 mps 741 mmHg 68%
    04:00 +5°C° 0 mm 2 mps 740 mmHg 69%
    05:00 +5°C° 0 mm 2 mps 739 mmHg 70%
    06:00 +7°C° 0 mm 1 mps 740 mmHg 69%
    07:00 +7°C° 0 mm 1 mps 740 mmHg 69%
    08:00 +8°C° 0 mm 1 mps 740 mmHg 68%
    09:00 +9°C° 0 mm 2 mps 740 mmHg 62%
    10:00 +11°C° 0 mm 3 mps 740 mmHg 56%
    11:00 +12°C° 0 mm 5 mps 741 mmHg 50%
    12:00 +14°C° 0 mm 6 mps 741 mmHg 50%
    13:00 +15°C° 0 mm 6 mps 741 mmHg 49%
    14:00 +16°C° 0 mm 7 mps 740 mmHg 49%
    15:00 +15°C° 0 mm 7 mps 741 mmHg 50%
    16:00 +14°C° 0 mm 7 mps 741 mmHg 51%
    17:00 +13°C° 0 mm 6 mps 741 mmHg 52%
    18:00 +10°C° 0 mm 5 mps 742 mmHg 53%
    19:00 +8°C° 0 mm 4 mps 743 mmHg 53%
    20:00 +8°C° 0 mm 3 mps 744 mmHg 54%
    21:00 +7°C° 0 mm 3 mps 744 mmHg 56%
    22:00 +5°C° 0 mm 3 mps 745 mmHg 58%
    23:00 +5°C° 0 mm 3 mps 745 mmHg 60%

    Day after tomorrow, 25 February, Tuesday

    Time Temperature Precipitation Wind Pressure Humidity
    00:00 +5°C° 0 mm 2 mps 745 mmHg 61%
    01:00 +6°C° 0 mm 1 mps 745 mmHg 63%
    02:00 +5°C° 0 mm 1 mps 746 mmHg 64%
    03:00 +5°C° 0 mm 1 mps 745 mmHg 65%
    04:00 +4°C° 0 mm 1 mps 745 mmHg 65%
    05:00 +4°C° 0 mm 1 mps 744 mmHg 65%
    06:00 +4°C° 0 mm 1 mps 744 mmHg 66%
    07:00 +4°C° 0 mm 1 mps 744 mmHg 66%
    08:00 +5°C° 0 mm 1 mps 745 mmHg 67%
    09:00 +6°C° 0 mm 2 mps 744 mmHg 62%
    10:00 +8°C° 0 mm 3 mps 744 mmHg 56%
    11:00 +9°C° 0 mm 3 mps 744 mmHg 51%
    12:00 +10°C° 0 mm 4 mps 743 mmHg 51%
    13:00 +11°C° 0 mm 4 mps 743 mmHg 51%
    14:00 +12°C° 0 mm 4 mps 742 mmHg 52%
    15:00 +12°C° 0 mm 4 mps 741 mmHg 55%
    16:00 +11°C° 0 mm 4 mps 741 mmHg 58%
    17:00 +11°C° 0 mm 4 mps 740 mmHg 62%
    18:00 +9°C° 0 mm 3 mps 740 mmHg 66%
    19:00 +8°C° 0 mm 3 mps 739 mmHg 70%
    20:00 +7°C° 0 mm 3 mps 739 mmHg 74%
    21:00 +7°C° 0 mm 3 mps 738 mmHg 76%
    22:00 +6°C° 0 mm 2 mps 738 mmHg 77%
    23:00 +6°C° 0 mm 2 mps 737 mmHg 79%

    26 February, Wednesday

    Time Temperature Precipitation Wind Pressure Humidity
    00:00 +5°C° 0 mm 2 mps 737 mmHg 80%
    01:00 +5°C° 0 mm 2 mps 736 mmHg 81%
    02:00 +6°C° 0 mm 1 mps 736 mmHg 82%
    03:00 +6°C° 0 mm 1 mps 735 mmHg 82%
    04:00 +6°C° 0 mm 1 mps 735 mmHg 83%
    05:00 +6°C° 0 mm 1 mps 735 mmHg 83%
    06:00 +6°C° 0 mm 1 mps 734 mmHg 82%
    07:00 +6°C° 0 mm 1 mps 734 mmHg 81%
    08:00 +7°C° 0 mm 1 mps 734 mmHg 80%
    09:00 +8°C° 0 mm 2 mps 734 mmHg 74%
    10:00 +10°C° 0 mm 2 mps 734 mmHg 69%
    11:00 +12°C° 0 mm 3 mps 734 mmHg 63%
    12:00 +13°C° 0 mm 3 mps 733 mmHg 61%
    13:00 +14°C° 0 mm 4 mps 733 mmHg 58%
    14:00 +15°C° 0 mm 5 mps 732 mmHg 56%
    15:00 +14°C° 0 mm 6 mps 732 mmHg 59%
    16:00 +13°C° 0 mm 6 mps 731 mmHg 62%
    17:00 +12°C° 0 mm 7 mps 731 mmHg 66%
    18:00 +11°C° 0 mm 6 mps 731 mmHg 70%
    19:00 +10°C° 0 mm 6 mps 731 mmHg 74%
    20:00 +9°C° 0 mm 6 mps 731 mmHg 77%
    21:00 +9°C° 0 mm 6 mps 731 mmHg 79%
    22:00 +9°C° 0 mm 6 mps 731 mmHg 80%
    23:00 +9°C° 0 mm 5 mps 731 mmHg 81%

    27 February, Thursday

    Time Temperature Precipitation Wind Pressure Humidity
    00:00 +9°C° 0 mm 5 mps 731 mmHg 82%
    01:00 +9°C° 0 mm 5 mps 731 mmHg 82%
    02:00 +8°C° 0 mm 4 mps 730 mmHg 83%
    03:00 +8°C° 0 mm 4 mps 730 mmHg 84%
    04:00 +8°C° 0 mm 4 mps 730 mmHg 86%
    05:00 +8°C° 0 mm 4 mps 729 mmHg 87%
    06:00 +8°C° 0 mm 4 mps 729 mmHg 85%
    07:00 +8°C° 0 mm 4 mps 729 mmHg 84%
    08:00 +9°C° 0 mm 3 mps 729 mmHg 82%
    09:00 +10°C° 0 mm 5 mps 729 mmHg 72%
    10:00 +11°C° 0 mm 6 mps 729 mmHg 63%
    11:00 +14°C° 0 mm 7 mps 729 mmHg 54%
    12:00 +13°C° 0.2 mm 8 mps 729 mmHg 57%
    13:00 +12°C° 0.2 mm 9 mps 728 mmHg 60%
    14:00 +11°C° 0.2 mm 11 mps 728 mmHg 64%
    15:00 +9°C° 0.2 mm 10 mps 728 mmHg 68%
    16:00 +7°C° 0.2 mm 9 mps 729 mmHg 71%
    17:00 +5°C° 0.2 mm 8 mps 729 mmHg 75%
    18:00 +5°C° 0.9 mm 8 mps 730 mmHg 71%
    19:00 +4°C° 0.9 mm 8 mps 731 mmHg 68%
    20:00 +2°C° 0.9 mm 8 mps 732 mmHg 65%
    21:00 +2°C° 0 mm 8 mps 733 mmHg 63%
    22:00 +1°C° 0 mm 8 mps 734 mmHg 62%
    23:00 +1°C° 0 mm 8 mps 735 mmHg 61%

    28 February, Friday

    Time Temperature Precipitation Wind Pressure Humidity
    00:00 +1°C° 0 mm 8 mps 735 mmHg 61%
    01:00 0°C° 0 mm 7 mps 736 mmHg 62%
    02:00 +1°C° 0 mm 6 mps 737 mmHg 62%
    03:00 +1°C° 0 mm 6 mps 737 mmHg 63%
    04:00 0°C° 0 mm 5 mps 738 mmHg 63%
    05:00 0°C° 0 mm 5 mps 738 mmHg 64%
    06:00 0°C° 0 mm 4 mps 739 mmHg 63%
    07:00 +1°C° 0 mm 3 mps 739 mmHg 62%
    08:00 +2°C° 0 mm 2 mps 740 mmHg 62%
    09:00 +4°C° 0 mm 2 mps 740 mmHg 54%
    10:00 +5°C° 0 mm 3 mps 740 mmHg 46%
    11:00 +7°C° 0 mm 3 mps 741 mmHg 38%
    12:00 +8°C° 0 mm 3 mps 741 mmHg 36%
    13:00 +9°C° 0 mm 3 mps 740 mmHg 34%
    14:00 +10°C° 0 mm 3 mps 740 mmHg 32%
    15:00 +10°C° 0 mm 2 mps 740 mmHg 36%
    16:00 +10°C° 0 mm 2 mps 740 mmHg 40%
    17:00 +9°C° 0 mm 2 mps 740 mmHg 44%
    18:00 +8°C° 0 mm 2 mps 740 mmHg 48%
    19:00 +7°C° 0 mm 2 mps 741 mmHg 52%
    20:00 +4°C° 0 mm 3 mps 741 mmHg 56%
    21:00 +5°C° 0 mm 2 mps 741 mmHg 56%
    22:00 +5°C° 0 mm 2 mps 742 mmHg 57%
    23:00 +4°C° 0 mm 2 mps 742 mmHg 58%
    Show more